Flag for Ireland Weather past 2 weeks in Limerick, Ireland

Now
48 °F

Passing clouds.


Feels Like: 44 °F
Forecast: 32 / 58 °F
Wind: 9 mph from Northeast

Location: Shannon Airport

Current Time: Apr 19, 2015 at 10:46:48 PM

Latest Report: Apr 19, 2015 at 10:00 PM


Visibility: N/A

Pressure: 30.30 "Hg

Humidity: 62%

Dew point: 36 °F

Location of LimerickLocation

Historic Weather in Limerick — Graph

°F

Limerick temperature yesterday

Maximum temperature yesterday: 59 °F (at 1:30 PM)
Minimum temperature yesterday: 45 °F (at 11:00 PM)
Average temperature yesterday: 53 °F

Past Weeks' High & Low Weather Summary

 TemperatureHumidityPressure
High64 °F (Apr 7, 3:00 PM)100% (Apr 5, 4:30 AM)30.66 "Hg (Apr 5, 4:30 AM)
Low36 °F (Apr 16, 6:00 AM)31% (Apr 18, 3:00 PM)29.68 "Hg (Apr 10, 8:00 PM)
Average50 °F72%30.22 "Hg
* Reported Apr 4 9:00 PM — Apr 19 9:30 PM, Limerick, Weather by CustomWeather, © 2015

Note: Actual official high and low records may vary slightly from our data, if they occured in-between our weather recording intervals... More about our weather records

Advertising

Limerick weather history for previous 24 hours

 ConditionsComfort  
Time TempWeatherWind HumidityBarometerVisibility
9:30 PM
Sun, Apr 19
50 °FPassing clouds.10 mph58%30.30 "HgN/A
9:00 PM50 °FPassing clouds.13 mph58%30.30 "HgN/A
8:30 PM52 °FPassing clouds.13 mph50%30.27 "HgN/A
8:00 PM54 °FScattered clouds.12 mph54%30.27 "HgN/A
7:30 PM55 °FScattered clouds.14 mph51%30.27 "HgN/A
7:00 PM55 °FScattered clouds.15 mph55%30.27 "HgN/A
6:30 PM57 °FPassing clouds.16 mph51%30.27 "HgN/A
6:00 PM57 °FPassing clouds.15 mph51%30.27 "HgN/A
5:30 PM59 °FScattered clouds.16 mph51%30.27 "HgN/A
5:00 PM59 °FPassing clouds.15 mph51%30.24 "HgN/A
4:30 PM59 °FPassing clouds.13 mph51%30.27 "HgN/A
4:00 PM59 °FPassing clouds.14 mph51%30.27 "HgN/A
3:30 PM59 °FPassing clouds.16 mph55%30.27 "HgN/A
3:00 PM59 °FScattered clouds.16 mph55%30.27 "HgN/A
2:30 PM59 °FScattered clouds.13 mph55%30.27 "HgN/A
2:00 PM59 °FSunny.13 mph48%30.30 "Hg10 mi
1:30 PM59 °FSunny.8 mph51%30.30 "Hg10 mi
1:00 PM59 °FPassing clouds.8 mph51%30.30 "HgN/A
12:30 PM57 °FPassing clouds.9 mph51%30.30 "HgN/A
12:00 PM57 °FSunny.12 mph51%30.30 "Hg10 mi
11:30 AM57 °FPassing clouds.10 mph48%30.33 "HgN/A
11:00 AM54 °FSunny.9 mph58%30.33 "Hg10 mi
10:30 AM52 °FSunny.9 mph62%30.33 "Hg10 mi
10:00 AM52 °FSunny.3 mph62%30.33 "Hg10 mi
9:30 AM48 °FSunny.3 mph71%30.33 "Hg10 mi
9:00 AM46 °FSunny.6 mph76%30.33 "Hg10 mi
8:30 AM46 °FSunny.8 mph76%30.33 "Hg10 mi
8:00 AM41 °FSunny.8 mph87%30.33 "Hg10 mi
7:30 AM39 °FSunny.2 mph87%30.33 "Hg10 mi
7:00 AM37 °FClear.5 mph87%30.33 "Hg10 mi
6:30 AM37 °FClear.7 mph87%30.33 "Hg10 mi
6:00 AM37 °FClear.7 mph93%30.33 "Hg10 mi
5:30 AM37 °FClear.2 mph87%30.30 "Hg10 mi
5:00 AM39 °FClear.5 mph87%30.30 "Hg10 mi
4:30 AM37 °FClear.7 mph93%30.30 "Hg10 mi
4:00 AM37 °FClear.3 mph93%30.33 "Hg10 mi
3:30 AM39 °FClear.2 mph87%30.33 "Hg10 mi
3:00 AM41 °FClear.2 mph81%30.33 "Hg10 mi
2:30 AM41 °FClear.3 mph81%30.33 "Hg10 mi
2:00 AM41 °FPassing clouds.3 mph81%30.33 "HgN/A
1:30 AM45 °FClear.9 mph71%30.33 "Hg10 mi
1:00 AM45 °FClear.8 mph71%30.33 "Hg10 mi
12:30 AM45 °FClear.5 mph71%30.33 "Hg10 mi
12:00 AM43 °FClear.5 mph76%30.33 "Hg10 mi
11:30 PM
Sat, Apr 18
45 °FClear.7 mph71%30.33 "Hg10 mi
11:00 PM45 °FClear.9 mph66%30.33 "Hg10 mi
10:30 PM46 °FClear.8 mph62%30.33 "Hg10 mi
10:00 PM50 °FClear.6 mph54%30.33 "Hg10 mi
Weather by CustomWeather, © 2015

See weather overviewHow to use our weather pages